Track COSMOS 1295 now! 10-day predictions COSMOS 1295 is classified as:
1 12681U 81077A 22180.37755601 .00000032 00000-0 17595-4 0 9994 2 12681 82.9184 120.4758 0044246 5.9661 112.2152 13.76438024 53174